Weather Roundup
Issued by NWS

Home | Current Version | Previous Version | Graphics & Text | Print | Product List | Glossary Off
Versions: 1 2 3 4 5 6 7 8 9 10 11 12 13 14 15 16 17 18 19 20 21 22 23 24 25 26 27 28 29 30 31 32 33 34 35 36 37 38 39 40 41 42 43 44 45 46 47 48 49 50

394
NZUS93 KARX 100410
HRRWXR

CURRENT HOURLY OBSERVATIONS ACROSS
MUCH OF THE UPPER MISSISSIPPI VALLEY
NATIONAL WEATHER SERVICE LA CROSSE WI
1000 PM CST TUE FEB 09 2016


...SOUTHEAST MINNESOTA...


CITY           SKY/WX    TMP DP  RH WIND       PRES   REMARKS
ROCHESTER      CLOUDY     7  -4  60 NW13      30.06S WCI  -9
ROCHESTER/MAYO FAIR      10  -2  59 NW9       30.08S WCI  -4
WINONA         CLEAR     12   1  62 NW10      30.11S WCI  -1
AUSTIN         CLEAR      9   0  66 NW9       30.08S WCI  -5
ALBERT LEA     CLEAR     10   1  67 NW6       30.10S WCI   1
DODGE CENTER   CLOUDY     7  -2  66 NW14      30.06S WCI -10
PRESTON        CLOUDY     4  -4  67 NW10      30.06S WCI -11
OWATONNA       CLEAR      7  -2  66 W8        30.11S WCI  -6
FARIBAULT        N/A      7   0  72 NW7       30.12S WCI  -5
$$

...ELSEWHERE IN MINNESOTA...


CITY           SKY/WX    TMP DP  RH WIND       PRES   REMARKS
MINNEAPOLIS    PTCLDY    10  -3  55 N13       30.15R WCI  -5
INTNL FALLS    CLOUDY    -7 -11  83 N7        30.15F WCI -21
DULUTH         PTCLDY     0  -7  72 N16G22    30.06R WCI -20
RED WING       CLEAR      9  -6  52 N6        30.11S WCI  -1
REDWOOD FALLS  CLOUDY    14   6  70 NW9       30.18S WCI   2
MANKATO        CLEAR      9   1  72 NW10      30.14R WCI  -6
WORTHINGTON    CLOUDY    18   9  68 NW9       30.14F WCI   6
FAIRMONT       CLEAR     10   3  72 NW10      30.13S WCI  -3
$$

...SOUTHWEST WISCONSIN...


CITY           SKY/WX    TMP DP  RH WIND       PRES   REMARKS
LA CROSSE      CLEAR      2  -6  69 NW8       30.08S WCI -12
PRAIRIE DU CHI CLEAR      9  -3  58 NW7       30.08S WCI  -2
BOSCOBEL       CLEAR      9  -1  64 CALM      30.07S
LONE ROCK      CLEAR     10  -2  58 NW9       30.05R WCI  -3
PLATTEVILLE    CLEAR      8   0  69 NW9       30.02F WCI  -5
FORT MC COY    CLEAR     -5  -7  88 CALM      30.06S
CAMP DOUGLAS   FLURRIES   3   0  85 W6        30.02S WCI  -8
VIROQUA        FAIR       4  -4  67 NW6       30.00S WCI  -7
WIS DELLS      CLOUDY    10   0  63 NW10      29.99F WCI  -4
$$

...ELSEWHERE IN WISCONSIN...


CITY           SKY/WX    TMP DP  RH WIND       PRES   REMARKS
MILWAUKEE      LGT SNOW  15   9  76 NW14      29.92S WCI   0
MADISON        PTCLDY    10   0  63 NW9       29.98R WCI  -3
GREEN BAY      CLOUDY    13   3  64 NW13      29.93F WCI  -2
EAU CLAIRE     CLEAR      7  -7  52 NW10      30.07S WCI  -8
BLACK RVR FLS  FAIR      -9 -14  77 CALM      30.05S
MEDFORD        CLOUDY     8   0  69 N13       29.95S WCI  -8
WAUSAU         CLOUDY    11   0  61 N12       29.94S WCI  -3
WIS RAPIDS     CLOUDY    10  -1  61 N8        30.00F WCI  -2
MARSHFIELD     CLOUDY    10  -3  55 N14       29.96F WCI  -6
RICE LAKE      CLEAR      6  -6  58 NW8       30.09R WCI  -7
$$

...NORTHEAST IOWA...


CITY           SKY/WX    TMP DP  RH WIND       PRES   REMARKS
WATERLOO       CLOUDY    10   0  63 NW16      30.12S WCI  -7
DUBUQUE        CLEAR      9   0  67 NW13      30.03S WCI  -7
DECORAH        CLEAR      7  -4  61 NW5       30.05F WCI  -2
MASON CITY     CLEAR      5   1  83 NW10      30.12F WCI -10
CHARLES CITY   CLOUDY     9   0  66 NW14      30.10S WCI  -8
OELWEIN        PTCLDY     7  -2  66 NW15      30.09S WCI -11
$$

...ELSEWHERE IN IOWA...


CITY           SKY/WX    TMP DP  RH WIND       PRES   REMARKS
DES MOINES     CLEAR     16   6  65 NW9       30.18S WCI   4
IOWA CITY      CLEAR     12   3  67 NW12      30.14S WCI  -2
FORT DODGE     CLEAR     10   3  72 NW3       30.16F
MARSHALLTOWN   CLEAR      7   3  84 NW7       30.14S WCI  -5
CEDAR RAPIDS   CLEAR      9   4  80 NW13      30.10S WCI  -7
$$

...NORTHERN ILLINOIS...


CITY           SKY/WX    TMP DP  RH WIND       PRES   REMARKS
CHICAGO-OHARE  CLOUDY    14   7  73 NW14      29.94S WCI  -1
CHICAGO-MIDWAY FLURRIES  15   6  67 NW16G25   29.95S WCI  -1
MOLINE         CLEAR     13   3  64 NW10      30.09R WCI   0
ROCKFORD       CLOUDY    14   1  56 NW13      30.01R WCI   0
PEORIA         CLOUDY    13   4  67 NW13      30.07R WCI  -2
$$

NOTE: "FAIR" INDICATES FEW OR NO CLOUDS BELOW 12,000 FEET WITH NO
SIGNIFICANT WEATHER AND/OR OBSTRUCTIONS TO VISIBILITY. WIND
SPEEDS ARE IN MILES-PER-HOUR.




USA.gov is the U.S. government's official web portal to all federal, state and local government web resources and services.